DW3195 Weather Reports


time (UTC)temp
F
wind
direction
speed
knots
gust
knots
rain 1hr
in
rain 24hr
in
rain mn
in
humidity
%
barometer
mb
20260503183004 54 150 3.5 8.7 0.00 0.00 0.00 37 926.2
20260503181505 55 285 4.3 7.8 0.00 0.00 0.00 33 926.2
20260503181006 55 188 2.6 6.1 0.00 0.00 0.00 36 926.3
20260503180006 54 331 2.6 7.8 0.00 0.00 0.00 36 926.4
20260503174006 54 280 3.5 7.0 0.00 0.00 0.00 38 926.7
20260503173506 53 295 5.2 8.7 0.00 0.00 0.00 38 926.8
20260503173006 53 285 3.5 7.8 0.00 0.00 0.00 38 926.8
20260503171505 53 279 1.7 5.2 0.00 0.00 0.00 40 926.8
20260503171005 53 151 2.6 6.1 0.00 0.00 0.00 39 926.9
20260503170506 52 268 2.6 5.2 0.00 0.00 0.00 41 926.9
20260503151005 48 185 1.7 5.2 0.00 0.00 0.00 44 927.6
20260503150506 48 238 4.3 7.8 0.00 0.00 0.00 48 927.8
20260503130505 42 281 1.7 6.1 0.00 0.00 0.00 55 927.6
20260503110505 26 47 0.0 0.9 0.00 0.00 0.00 99 926.3
20260503090505 27 358 0.0 0.9 0.00 0.00 0.00 97 925.4
20260503081506 29 37 0.0 0.9 0.00 0.00 0.00 97 925.0
20260503081005 29 7 0.0 1.7 0.00 0.00 0.00 97 925.0
20260503080506 29 31 0.0 0.9 0.00 0.00 0.00 96 925.0
20260503071505 29 349 0.0 1.7 0.00 0.00 0.00 96 924.7
20260503071005 29 34 0.0 0.9 0.00 0.00 0.00 96 924.6
20260503070505 29 201 0.0 1.7 0.00 0.00 0.00 96 924.5
20260503054505 31 86 0.9 1.7 0.00 0.00 0.00 94 924.5
20260503054005 31 24 0.0 1.7 0.00 0.00 0.00 94 924.4
20260503051006 33 25 0.9 1.7 0.00 0.00 0.00 90 924.3
20260503050505 33 70 0.0 0.9 0.00 0.00 0.00 90 924.3
20260503050005 33 12 0.9 1.7 0.00 0.00 0.00 90 924.2
20260503044505 33 142 0.9 2.6 0.00 0.00 0.00 90 924.2
20260503044005 33 263 0.9 2.6 0.00 0.00 0.00 90 924.2
20260503043505 33 15 1.7 1.7 0.00 0.00 0.00 90 924.2
20260503043005 33 6 0.9 4.3 0.00 0.00 0.00 89 924.2
20260503040506 33 61 0.0 1.7 0.00 0.00 0.00 90 924.0
20260503040005 34 97 0.9 1.7 0.00 0.00 0.00 90 924.0
20260503033505 35 33 0.0 1.7 0.00 0.00 0.00 89 924.0
20260503033005 35 30 0.0 2.6 0.00 0.00 0.00 90 924.0
20260503031505 34 31 0.0 0.9 0.00 0.00 0.00 90 924.0
20260503031007 33 14 0.0 1.7 0.00 0.00 0.00 91 923.9
20260503030505 33 169 0.9 1.7 0.00 0.00 0.00 91 924.0
20260503030005 33 19 0.9 1.7 0.00 0.00 0.00 91 924.0
20260503024504 33 51 0.9 0.9 0.00 0.00 0.00 89 923.9
20260503024005 33 22 0.0 0.9 0.00 0.00 0.00 88 923.9
20260503023505 33 26 0.0 0.9 0.00 0.00 0.00 88 924.0
20260503023004 34 33 0.9 1.7 0.00 0.00 0.00 88 924.0
20260503021505 34 43 0.0 0.9 0.00 0.00 0.00 86 923.9
20260503021005 35 188 0.9 1.7 0.00 0.00 0.00 86 923.9
20260503020504 35 323 0.0 1.7 0.00 0.00 0.00 86 923.9
20260503020004 35 109 0.0 1.7 0.00 0.00 0.00 85 923.8
20260503014505 36 141 0.9 1.7 0.00 0.00 0.00 84 923.9
20260503014004 36 48 0.0 0.9 0.00 0.00 0.00 83 923.9
20260503013505 36 37 0.9 1.7 0.00 0.00 0.00 83 923.8
20260503013005 37 61 1.7 2.6 0.00 0.00 0.00 82 923.7
20260503011504 38 351 0.9 2.6 0.00 0.00 0.00 80 923.6
20260503011005 39 28 0.0 1.7 0.00 0.00 0.00 77 923.5
20260503010504 39 2 0.9 1.7 0.00 0.00 0.00 76 923.4
20260503004504 42 8 1.7 4.3 0.00 0.00 0.00 68 923.2
20260503004004 43 49 1.7 2.6 0.00 0.00 0.00 69 923.3
20260503003004 44 65 0.0 4.3 0.00 0.00 0.00 62 923.2
20260503001504 44 320 2.6 6.1 0.00 0.00 0.00 61 923.1
20260503000505 45 268 1.7 5.2 0.00 0.00 0.00 59 922.9
20260503000005 45 351 1.7 6.1 0.00 0.00 0.00 59 923.0
20260502234506 46 231 1.7 4.3 0.00 0.00 0.00 57 922.8
20260502234005 46 270 1.7 4.3 0.00 0.00 0.00 57 922.8
20260502233506 47 300 2.6 7.8 0.00 0.00 0.00 56 922.8
20260502233006 47 253 2.6 7.0 0.00 0.00 0.00 56 922.7
20260502231505 48 38 0.9 5.2 0.00 0.00 0.00 54 922.6
20260502231005 48 301 1.7 6.1 0.00 0.00 0.00 54 922.6
20260502230506 48 223 3.5 7.0 0.00 0.00 0.00 54 922.7
20260502224505 47 258 2.6 6.1 0.00 0.00 0.00 54 922.6
20260502224006 47 187 3.5 7.0 0.00 0.00 0.00 54 922.5
20260502223505 48 274 1.7 8.7 0.00 0.00 0.00 54 922.5
20260502223006 48 245 2.6 10.4 0.00 0.00 0.00 54 922.5
20260502221506 48 257 2.6 10.4 0.00 0.00 0.00 53 922.4
20260502221006 48 250 1.7 5.2 0.00 0.00 0.00 55 922.4
20260502220005 48 162 2.6 10.4 0.00 0.00 0.00 55 922.4
20260502214505 49 264 0.9 5.2 0.00 0.00 0.00 54 922.1
20260502213505 49 267 2.6 5.2 0.00 0.00 0.00 53 922.1
20260502213005 48 288 3.5 6.1 0.00 0.00 0.00 53 922.0
20260502211505 48 293 2.6 7.8 0.00 0.00 0.00 54 922.0
20260502211005 48 299 2.6 7.8 0.00 0.00 0.00 54 922.0
20260502210005 49 254 2.6 8.7 0.00 0.00 0.00 54 921.9
20260502204505 49 213 2.6 6.1 0.00 0.00 0.00 52 922.0
20260502204005 49 3 1.7 7.0 0.00 0.00 0.00 54 922.0
20260502203506 49 226 2.6 5.2 0.00 0.00 0.00 53 922.0
20260502201505 49 302 3.5 7.0 0.00 0.00 0.00 51 922.2
20260502201005 49 259 1.7 7.0 0.00 0.00 0.00 52 922.1
20260502200505 49 240 2.6 7.0 0.00 0.00 0.00 53 922.3
20260502200005 49 233 4.3 12.2 0.00 0.00 0.00 52 922.2
20260502194005 49 266 3.5 7.8 0.00 0.00 0.00 51 922.3
20260502193505 49 50 2.6 7.0 0.00 0.00 0.00 52 922.4
20260502193005 49 311 3.5 8.7 0.00 0.00 0.00 52 922.4
20260502191505 50 255 2.6 8.7 0.00 0.00 0.00 50 922.4
20260502191005 51 314 4.3 11.3 0.00 0.00 0.00 50 922.4
20260502190505 51 330 4.3 7.8 0.00 0.00 0.00 49 922.4
20260502190005 51 265 2.6 7.8 0.00 0.00 0.00 48 922.3
20260502184005 51 297 2.6 7.8 0.00 0.00 0.00 49 922.4
20260502183505 52 236 2.6 8.7 0.00 0.00 0.00 47 922.5